Location: Finkenbach
(49.5340°N, 8.9188°E)
Time: 21:15:41
(UTC+00:00)

ASTEX 1 - Pass Details

Date: 17 June 2025
Orbit: 712 x 736 km, 92.7° (Epoch: 16 July)

Event Time Altitude Azimuth Distance (km) Brightness Sun altitude
Rises 22:43:23 0° 0° (N) 3,177 8.4 -16.5°
Reaches altitude 10° 22:45:45 10° 355° (N) 2,248 7.3 -16.5°
Maximum altitude 22:50:29 45° 283° (WNW) 990 4.2 -16.6°
Enters shadow 22:53:53 18° 218° (SW) 1,754 5.0 -16.7°
